Theta_e
311 313 313 314 314 314 313 314 313 312 313 314 315 317 318 319 320 319 317 315 316 319 319 320 321 319 318 318 318 318 318 320 322 322 322 322 322 322 321 321 321 321 321 321 321
313 314 314 314 314 314 314 315 314 312 314 315 316 318 318 319 322 318 315 316 317 320 322 320 320 319 320 319 319 319 320 321 322 321 320 320 320 319 319 320 320 320 320 320 320
314 313 313 314 314 314 314 315 315 315 314 314 315 315 315 317 323 320 315 316 317 320 322 322 321 321 322 321 321 322 321 322 322 321 320 320 320 320 320 320 320 320 320 320 320
312 314 313 314 314 315 314 314 315 315 315 315 316 317 317 319 322 320 314 316 317 320 321 321 322 323 322 321 322 321 321 321 321 320 319 320 320 320 320 319 319 319 319 319 319
312 313 313 314 314 315 315 314 314 314 315 315 315 316 317 326 320 319 317 319 321 321 320 320 322 322 323 323 322 322 323 323 321 320 321 320 321 322 321 321 320 320 319 319 318
312 313 313 314 315 315 315 314 314 314 314 314 314 314 321 326 318 320 320 320 320 320 319 320 321 321 320 321 323 322 323 323 321 321 322 322 322 321 320 320 320 320 319 319 318
312 313 313 313 314 315 316 314 314 314 314 313 314 314 321 321 317 319 319 320 320 321 320 319 319 319 321 321 322 323 322 322 324 324 324 323 323 323 323 322 322 322 322 321 321
312 312 313 313 313 313 313 316 314 313 313 313 314 314 325 319 316 317 318 320 319 321 319 320 320 319 319 320 322 323 324 325 325 325 323 323 323 324 323 323 323 322 322 322 321
313 314 314 314 313 312 313 316 317 315 314 314 315 321 324 317 317 316 317 318 317 318 318 319 320 321 322 324 325 326 327 326 324 323 324 323 324 324 323 323 324 324 324 323 322
311 314 314 314 313 313 313 318 319 316 318 319 316 320 321 317 316 317 318 317 317 319 320 321 320 324 325 326 328 324 322 322 323 323 323 324 324 325 325 325 326 326 326 326 326
313 312 313 314 314 313 318 319 322 323 321 324 321 318 318 317 316 317 317 317 320 321 322 323 324 323 327 324 321 322 323 323 324 325 326 326 326 326 328 327 327 327 327 327 327
316 316 313 313 315 317 319 320 318 317 319 321 321 318 318 316 317 318 316 318 318 321 323 323 324 325 324 322 321 323 324 324 324 325 325 326 327 329 329 328 327 327 326 325 323
316 316 315 312 316 319 319 319 317 318 320 324 322 317 317 317 317 318 317 317 320 322 323 323 323 323 322 321 323 324 324 324 324 324 325 327 328 328 329 328 328 327 327 326 326
309 311 316 314 316 318 320 318 317 319 323 326 320 318 317 317 319 318 317 317 321 322 322 322 323 322 322 322 324 324 322 324 324 325 326 325 332 330 329 329 328 326 325 325 325
309 307 312 315 315 320 318 317 318 321 336 321 319 318 318 318 318 318 317 318 321 322 321 321 322 322 322 322 322 323 323 324 325 326 326 326 334 330 328 328 326 325 324 324 324
310 307 308 319 318 320 317 319 323 329 333 323 320 319 320 319 319 318 319 319 321 322 323 323 322 323 322 321 321 322 323 325 325 326 335 329 325 326 329 327 327 325 324 323 323
308 306 307 313 319 318 317 319 327 331 323 322 320 319 320 319 320 319 320 320 321 322 322 323 324 322 322 322 322 322 326 331 330 328 326 324 325 333 330 327 326 325 323 322 323
306 306 311 315 318 317 318 323 327 327 323 321 319 320 320 319 320 320 321 320 320 320 321 321 324 322 323 322 322 322 327 330 331 328 326 325 330 330 328 326 323 322 321 320 320
305 312 318 322 318 316 319 322 325 323 320 319 319 320 320 321 320 321 322 320 319 319 319 320 321 319 321 321 322 323 327 324 327 328 329 325 326 329 326 325 324 322 321 319 319
308 319 321 319 318 318 321 322 323 320 318 319 320 319 320 321 321 321 322 319 319 318 317 318 321 320 321 321 323 324 325 328 329 330 329 323 325 331 326 326 324 322 321 319 318
318 320 321 317 317 320 324 323 321 318 318 318 318 319 320 321 321 322 322 320 319 318 317 318 322 321 321 323 324 326 324 325 326 329 331 329 326 325 327 326 324 322 320 318 318
319 321 318 315 321 322 322 321 317 318 317 318 318 320 320 320 322 322 322 321 318 317 316 317 316 320 322 323 323 323 324 323 331 330 329 328 329 326 325 325 323 322 319 317 317
319 319 318 320 325 322 321 319 318 317 318 318 318 319 319 321 322 322 321 320 318 317 317 317 319 322 323 326 324 322 322 322 325 328 329 329 329 325 324 326 323 321 319 317 316
320 321 318 319 319 320 321 322 319 318 317 317 318 319 320 321 321 322 322 321 319 318 315 319 321 323 329 325 322 322 323 323 324 330 329 330 326 324 325 325 323 320 318 316 316
320 319 317 322 321 319 320 320 319 320 318 317 319 320 320 321 322 323 322 321 320 316 317 321 322 322 321 321 322 322 323 324 325 325 328 326 325 325 325 324 322 319 317 316 316
314 314 314 314 318 319 316 321 321 319 318 318 320 320 319 321 322 323 321 321 321 319 319 320 322 322 322 322 321 322 326 325 323 322 323 325 324 322 322 322 323 319 317 315 315
315 314 316 316 318 319 321 321 317 317 318 318 318 319 319 320 319 318 317 318 320 320 319 321 324 324 325 323 322 327 326 323 323 323 325 326 323 322 323 323 321 318 317 315 314
Wind_Speed
16 16 16 13 11 11 10 11 10 9 9 11 11 9 8 6 7 10 10 7 6 7 7 6 6 6 6 10 7 11 8 11 17 13 11 19 12 6 2 15 12 20 21 19 27
15 14 15 15 12 10 9 10 11 7 8 8 8 6 3 5 6 7 11 10 8 7 12 11 7 7 11 7 5 6 9 13 11 11 11 15 14 16 17 19 20 22 27 25 27
13 13 14 13 11 9 7 6 8 9 5 1 4 4 5 8 11 3 9 10 13 9 10 13 11 7 10 3 9 3 11 15 12 12 13 14 16 17 17 17 20 20 22 24 23
12 13 14 13 11 8 5 3 3 5 5 4 6 8 9 8 4 2 10 10 9 12 12 10 11 10 9 6 4 8 13 14 12 13 15 14 19 20 21 23 22 23 23 23 25
14 13 14 14 12 9 6 4 2 2 2 4 7 9 13 8 6 8 11 7 13 10 12 10 13 11 12 16 9 13 15 15 13 19 20 22 21 22 26 26 24 25 24 25 24
15 14 14 14 13 11 8 6 4 3 2 5 8 11 11 13 8 9 7 8 12 12 11 10 10 12 12 14 14 19 20 18 22 24 23 20 18 18 25 24 23 22 21 21 20
16 15 14 15 15 14 11 6 5 6 6 6 10 12 12 5 11 7 9 11 12 10 12 12 12 12 17 17 18 17 17 18 22 21 13 16 19 19 27 22 16 15 18 20 22
16 14 14 14 14 15 15 8 6 5 8 12 12 6 9 3 8 9 11 10 12 9 13 13 12 14 16 18 22 21 20 17 8 11 11 11 22 16 20 20 18 19 20 19 19
17 14 14 17 16 13 15 12 8 9 9 10 10 7 14 6 12 15 9 12 16 14 15 13 11 14 15 14 14 22 16 16 16 19 18 19 20 19 25 27 24 25 27 24 25
22 19 16 18 19 15 13 10 9 10 10 11 11 11 10 11 14 12 8 16 17 13 14 17 15 14 14 14 12 16 19 18 18 19 19 20 21 20 24 28 27 27 27 25 25
22 21 17 16 19 14 11 11 9 5 7 15 12 9 11 13 12 10 12 18 10 10 14 12 8 12 15 11 14 15 16 19 20 17 18 18 22 23 23 21 17 14 18 19 20
23 23 18 15 14 10 9 8 10 12 16 15 10 10 10 10 17 8 14 14 16 13 14 11 15 11 9 10 14 16 19 19 17 16 18 21 24 24 16 9 14 19 16 14 16
24 23 20 14 10 9 7 6 13 11 9 8 6 7 7 10 11 9 14 16 15 13 11 13 16 8 9 12 16 16 16 16 19 20 20 24 19 15 10 11 21 29 28 24 21
24 23 21 17 10 11 6 11 12 8 5 8 4 3 9 9 4 14 9 11 12 14 16 11 8 7 11 12 12 13 17 17 20 20 16 19 13 13 10 8 12 20 27 33 35
27 24 18 15 10 7 11 12 8 2 5 4 2 4 10 1 10 2 10 8 13 16 9 16 19 14 11 10 12 17 15 19 23 22 20 17 8 7 6 11 15 18 25 32 34
28 23 21 7 10 7 12 10 5 6 3 6 3 8 12 8 13 6 12 10 14 15 19 16 16 15 5 11 17 22 12 19 20 17 10 4 16 9 8 13 17 20 32 36 39
28 22 18 10 6 11 10 7 6 5 3 5 8 13 13 6 10 8 13 9 8 13 17 21 9 8 2 12 14 17 12 6 5 7 10 23 11 7 9 15 19 23 36 41 40
29 20 9 6 5 9 7 8 8 9 13 12 12 18 15 5 8 12 14 6 13 13 14 12 9 17 19 13 12 19 4 2 3 8 15 21 4 8 3 22 30 35 37 37 39
25 7 6 1 6 5 8 7 6 9 10 10 14 10 9 12 11 12 14 6 8 10 9 12 12 25 19 6 13 9 9 7 2 9 7 8 3 11 22 22 29 35 35 39 37
19 7 4 2 6 4 7 12 3 7 9 8 11 7 14 13 13 13 10 8 4 7 13 11 18 13 14 19 12 1 6 6 3 4 6 10 14 8 24 21 26 27 29 38 38
10 7 2 7 6 8 8 6 5 7 8 7 11 11 12 11 15 14 8 9 6 10 13 14 10 15 16 15 7 9 3 8 5 4 3 6 8 11 17 21 23 24 30 38 40
6 5 6 4 9 9 4 5 4 5 5 4 6 8 8 12 12 14 10 9 11 11 11 9 7 11 22 13 10 10 14 11 4 6 4 3 7 16 19 21 25 27 32 40 40
9 10 3 5 5 4 5 1 1 6 6 5 6 7 10 10 11 10 8 10 8 7 6 7 5 10 12 2 8 18 17 15 11 5 7 3 6 18 18 20 27 26 32 39 39
8 4 2 1 4 7 7 2 4 2 7 2 9 10 8 12 11 10 16 10 18 13 8 3 5 7 6 16 20 19 20 18 9 4 7 10 18 19 21 20 21 27 28 36 36
5 4 3 5 7 8 6 9 8 4 2 8 5 5 10 11 15 14 16 16 19 4 4 2 6 14 15 20 23 20 22 14 11 9 3 15 15 18 20 17 19 19 26 31 35
8 7 11 15 8 8 4 8 4 6 6 11 6 9 10 12 14 16 17 15 8 12 9 6 13 15 16 22 19 20 18 10 8 11 15 13 16 15 24 27 19 18 26 29 33
10 9 9 12 11 6 2 6 8 9 9 5 7 11 13 13 17 24 26 24 19 16 14 13 7 10 18 21 21 8 10 4 9 11 9 10 16 15 19 17 11 20 23 27 30
Wind_Direction
50 54 47 44 44 50 52 46 62 93 89 93 101 101 98 79 47 22 27 38 75 30 360 356 266 312 268 254 251 262 263 258 260 284 336 351 349 311 235 266 278 285 287 286 284
47 44 39 39 44 51 59 62 63 103 103 107 85 85 44 354 345 43 27 30 33 35 22 9 350 320 257 250 253 243 241 263 22 348 330 328 326 310 306 292 278 270 276 272 275
43 41 37 35 40 43 53 69 69 76 92 52 338 326 290 304 317 86 11 11 23 27 346 309 305 293 282 238 234 277 258 325 330 337 325 310 300 294 288 278 276 278 277 279 280
36 34 32 31 30 32 35 41 82 71 57 39 7 346 342 332 12 86 344 350 359 11 355 341 330 313 281 254 201 273 279 293 307 306 300 294 294 287 281 278 280 279 276 274 275
34 29 27 25 23 16 3 344 323 321 26 1 346 326 328 285 9 328 330 334 356 334 334 333 325 336 294 328 296 287 279 278 288 287 283 282 279 280 278 278 275 272 270 266 267
30 25 20 17 15 6 354 335 285 275 304 321 316 315 327 275 341 310 335 310 308 316 320 315 331 318 295 269 287 297 299 293 289 282 276 273 284 297 284 284 277 268 261 259 259
22 17 13 8 5 4 350 324 310 266 291 335 330 289 293 296 343 315 310 298 301 300 305 301 310 303 302 299 273 298 293 284 267 254 249 266 271 258 270 275 260 271 273 271 265
13 9 2 356 354 352 352 323 275 261 285 292 329 297 271 266 340 330 315 316 310 283 290 293 290 293 281 276 276 270 264 264 304 204 256 270 276 278 278 278 288 282 281 268 251
1 350 352 352 344 333 340 333 278 265 301 301 281 288 289 319 333 326 312 317 311 300 292 266 270 277 281 265 267 260 236 295 317 321 309 286 282 285 281 273 271 265 268 247 247
359 353 332 335 340 337 334 311 307 268 291 287 257 282 248 329 327 336 320 318 305 303 292 241 237 255 247 247 290 334 317 311 300 300 290 284 289 297 307 298 288 282 276 272 262
355 350 344 340 339 343 359 330 328 255 239 269 301 277 313 324 323 316 324 324 305 279 270 276 263 277 303 1 320 304 290 288 285 299 331 314 306 294 283 282 309 336 323 315 329
351 349 343 337 344 358 351 338 356 311 309 289 259 271 277 306 309 322 333 332 319 293 293 266 239 260 8 316 299 289 285 289 308 334 318 297 284 274 289 337 322 292 329 345 318
343 343 342 334 333 329 343 320 330 325 287 312 204 282 301 303 331 315 335 331 315 300 309 309 291 332 308 301 300 297 300 317 319 308 290 285 293 320 330 13 18 3 358 347 338
340 333 335 332 329 318 323 321 323 310 276 144 183 116 301 324 248 336 339 329 307 320 317 292 264 304 304 304 311 313 320 312 304 300 298 299 298 310 39 25 10 351 344 338 330
339 329 324 329 337 345 329 324 318 291 281 100 96 298 291 280 303 107 326 307 298 326 305 285 312 309 310 329 327 293 299 300 289 296 288 284 306 292 2 16 2 355 346 335 321
336 328 316 317 306 313 322 319 319 246 232 132 290 325 324 329 336 302 315 258 295 319 297 257 271 264 328 308 288 301 294 314 311 277 266 343 336 313 48 7 351 345 338 335 327
333 325 301 267 249 318 316 302 261 245 112 59 340 330 316 337 329 335 317 325 17 343 339 314 24 91 165 308 323 336 2 332 313 341 313 333 325 56 27 354 358 346 341 337 329
336 329 326 248 297 301 312 269 264 310 37 6 339 301 290 12 345 321 319 331 33 359 317 356 338 8 341 319 318 306 97 141 283 322 312 304 296 15 318 357 350 349 344 342 328
342 354 293 250 310 310 282 260 306 15 359 342 323 342 342 345 350 344 338 52 18 4 356 315 318 323 302 325 309 331 2 348 153 277 281 284 12 197 6 354 350 342 345 341 328
349 2 121 347 301 298 264 258 354 49 358 337 308 352 331 343 343 330 335 71 15 353 346 313 307 310 321 304 291 21 299 326 7 309 301 316 310 4 350 353 346 344 345 333 326
353 287 57 327 269 259 253 4 5 50 20 336 338 320 324 347 334 336 334 72 23 337 327 320 323 310 300 310 327 242 356 315 348 289 305 300 305 18 3 353 347 339 346 334 330
342 290 351 338 253 233 36 25 359 343 319 312 300 309 336 335 326 316 338 359 350 329 328 351 302 302 304 314 301 36 347 336 332 292 230 252 274 5 359 351 349 335 343 338 333
319 294 357 341 306 352 81 288 300 321 336 322 307 313 332 310 321 324 325 310 357 297 5 353 330 324 327 117 339 339 325 314 299 302 280 312 282 319 354 351 356 343 342 338 337
304 304 60 308 31 337 5 275 299 168 297 263 295 297 303 335 303 317 295 350 340 347 102 92 294 304 277 292 295 302 299 293 309 291 317 293 319 335 352 344 353 344 339 338 342
275 33 5 321 45 335 311 310 293 312 308 300 287 241 350 323 316 305 344 336 325 105 220 241 291 290 309 303 288 284 284 296 296 336 293 314 321 338 344 336 353 339 342 342 347
340 347 342 290 279 298 256 292 302 318 321 306 263 328 321 307 310 322 322 315 309 311 337 297 296 306 303 296 308 318 25 349 359 330 327 327 330 340 330 336 349 349 348 346 349
1 331 298 297 277 262 28 343 316 312 298 281 329 311 303 315 322 300 292 280 269 278 284 285 299 309 296 303 308 35 221 10 346 2 5 354 335 312 338 338 359 354 353 347 347